Location: Shenandoah County Park
(38.9356°N, 78.4524°W)
Time: 01:44:57
(UTC-05:00)

A-11 Canister half - Pass Details

Date: 10 December 2023
Orbit: 1526 x 1682 km, 47.3° (Epoch: 01 March)

Event Time Altitude Azimuth Distance (km) Brightness Sun altitude
Rises 17:07:18 0° 225° (SW) 4,883 13.4 -3.5°
Reaches altitude 10° 17:10:26 10° 224° (SW) 3,910 12.6 -4.1°
Maximum altitude 17:20:26 71° 142° (SE) 1,758 9.3 -5.8°
Drops below altitude 10° 17:30:30 10° 61° (ENE) 3,937 10.5 -7.6°
Enters shadow 17:30:57 - 61° (ENE) 4,079 10.5 -7.7°
